Regional Weather Roundup
Issued by NWS

Home | Current Version | Previous Version | Graphics & Text | Print | Product List | Glossary On
Versions: 1 2 3 4 5 6 7 8 9 10 11 12 13 14 15 16 17 18 19 20 21 22 23 24 25 26 27 28 29 30 31 32 33 34 35 36 37 38 39 40 41 42 43 44 45 46 47 48 49 50
000
ASUS44 KMEG 261210
RWRTN
TENNESSEE HOURLY STATE WEATHER ROUNDUP
NATIONAL WEATHER SERVICE MEMPHIS TN
600 AM CST FRI DEC 26 2014

TNZ002-004-019-021-049-052-054-088>092-261300-
WEST TENNESSEE

CITY           SKY/WX    TMP DP  RH WIND       PRES   REMARKS
MEMPHIS INTL   CLOUDY    42  35  76 S7        30.19R
NWS MEMPHIS      N/A     40 N/A N/A MISG        N/A
JACKSON        CLOUDY    41  34  76 S8        30.23R
DYERSBURG      MOCLDY    41  27  56 S3        30.22R
UNION CITY     CLEAR     36  34  93 S5        30.19R WCI  32
PARIS          CLEAR     36  32  87 S6        30.22R WCI  31
HUNTINGDON     CLOUDY    34  32  92 SE3       30.23R
LEXINGTON      CLEAR     36  34  93 SE3       30.24R
SAVANNAH       CLEAR     36  36 100 SE6       30.25S WCI  31
$$

TNZ008-025-027-028-033-062-065-066-261300-
NORTH MIDDLE TENNESSEE

CITY           SKY/WX    TMP DP  RH WIND       PRES   REMARKS
NASHVILLE      MOCLDY    33  31  92 CALM      30.28R
CLARKSVILLE    MOCLDY    33  31  92 SE7       30.25R WCI  27
SMYRNA         MOCLDY    31  31 100 CALM      30.30R
COOKEVILLE     CLEAR     27  25  93 CALM      30.27R
CROSSVILLE     PTCLDY    30  26  85 CALM      30.27R
$$

TNZ061-075-076-078-094-096-097-261300-
SOUTH MIDDLE TENNESSEE

CITY           SKY/WX    TMP DP  RH WIND       PRES   REMARKS
FAYETTEVILLE   CLEAR     28  28 100 MISG      30.28R
TULLAHOMA      CLEAR     28  27  93 CALM      30.28R
WINCHESTER     CLEAR     28  28 100 CALM      30.29R
MCMINNVILLE    CLEAR     27  27 100 CALM      30.27R
COLUMBIA       CLEAR    N/A N/A N/A CALM      30.26R
SHELBYVILLE    CLEAR     30  30 100 CALM      30.29R
$$

TNZ017-018-042-046-047-261300-
NORTHEAST TENNESSEE

CITY           SKY/WX    TMP DP  RH WIND       PRES   REMARKS
TRI CITIES     CLEAR     25  23  92 CALM      30.31R
ELIZABETHTON   SUNNY     27  25  93 NE3       30.30R
$$

TNZ012-013-036-069-073-074-261300-
CENTRAL EAST TENNESSEE

CITY           SKY/WX    TMP DP  RH WIND       PRES   REMARKS
KNOXVILLE      NOT AVBL
OAK RIDGE      FOG       30  29  96 CALM      30.32R VSB 1/4
GATLINBURG     SUNNY     25  23  93 CALM      30.30S
MORRISTOWN     SUNNY     28  28 100 E5        30.29F WCI  23
$$

TNZ083-085-099-261300-
SOUTHEAST TENNESSEE

CITY           SKY/WX    TMP DP  RH WIND       PRES   REMARKS
CHATTANOOGA    FOG       33  32  96 VRB3      30.32R VSB 1/4
$$

SKY/WX REPORTED AS FAIR MEANS FEW OR NO CLOUDS BELOW
12 THOUSAND FEET.




USA.gov is the U.S. government's official web portal to all federal, state and local government web resources and services.